Location: Zagreb
(45.8000°N, 16.0000°E)
Time: 16:19:51
(UTC+01:00)

Tiros 1 despin weight - Pass Details

Date: 01 December 2023
Orbit: 581 x 624 km, 48.2° (Epoch: 02 March)

Event Time Altitude Azimuth Distance (km) Brightness Sun altitude
Rises 19:14:40 0° 224° (SW) 2,790 ? -30.9°
Reaches altitude 10° 19:17:02 10° 217° (SW) 1,890 ? -31.3°
Enters shadow 19:17:42 14° 214° (SSW) 1,646 ? -31.4°
